Weather History for KIPJ - March, 2014

Change the Weather History Date:

Friday, March 14, 2014

  Actual Average (KCLT) Record (KCLT)
Temperature  
Mean Temperature 42 °F 51 °F  
Max Temperature 61 °F 62 °F 83 °F (2012)
Min Temperature 22 °F 39 °F 16 °F (1926)
Degree Days  
Heating Degree Days 24 15  
Month to date heating degree days 228  
Since 1 July heating degree days 2927  
Cooling Degree Days 0 0  
Month to date cooling degree days 0  
Year to date cooling degree days 0  
Moisture  
Dew Point 16 °F    
Average Humidity 41    
Maximum Humidity 86    
Minimum Humidity 14    
Precipitation  
Precipitation 0.00 in 0.14 in 1.81 in (1964)
Month to date precipitation 1.89  
Year to date precipitation 8.62  
Snow  
Snow 0.00 in 0.00 in 1.30 in (1924)
Month to date snowfall 0.4  
Since 1 July snowfall 4.1  
Snow Depth -    
Sea Level Pressure  
Sea Level Pressure 30.19 in    
Wind  
Wind Speed 3 mph (SW)    
Max Wind Speed 16 mph    
Max Gust Speed 32 mph    
Visibility 10 miles    
Events      
T = Trace of Precipitation, MM = Missing Value Source: NWS Daily Summary

Daily Weather History Graph

Daily Weather History Graph

Search for Another Location

Airport or City:

Trip Planner

Search our weather history database for the weather conditions in past years. The results will help you decide how hot, cold, wet, or windy it might be!

Date:

Astronomy

Mar. 14, 2014 Rise Set
Actual Time 7:36 AM EDT 7:31 PM EDT
Civil Twilight 7:11 AM EDT 7:56 PM EDT
Nautical Twilight 6:41 AM EDT 8:26 PM EDT
Astronomical Twilight 6:12 AM EDT 8:56 PM EDT
Moon 5:54 PM EDT (3/14) 6:12 AM EDT (3/14)
Length of Visible Light 12h 45m
Length of Day
11h 54m
Waxing Gibbous, 96% of the Moon is Illuminated
Mar 14
Waxing Gibbous
Mar 16
Full
Mar 23
Last Quarter
Mar 30
New
Apr 7
First Quarter

Hourly Weather History & Observations

Time (EDT) Temp. Windchill Dew Point Humidity Pressure Visibility Wind Dir Wind Speed Gust Speed Precip Events Conditions
12:15 AM 31.6 °F - 11.5 °F 43% 30.21 in 10.0 mi Calm Calm - N/A   Clear
12:35 AM 29.5 °F - 11.5 °F 47% 30.21 in 10.0 mi Calm Calm - N/A   Clear
12:55 AM 27.5 °F - 13.8 °F 56% 30.21 in 10.0 mi Calm Calm - N/A   Clear
1:15 AM 28.2 °F - 15.4 °F 59% 30.21 in 10.0 mi Calm Calm - N/A   Clear
1:35 AM 27.3 °F - 16.2 °F 63% 30.21 in 10.0 mi Calm Calm - N/A   Clear
1:55 AM 27.3 °F - 20.3 °F 75% 30.22 in 10.0 mi Calm Calm - N/A   Clear
2:15 AM 26.6 °F - 17.2 °F 68% 30.22 in 10.0 mi Calm Calm - N/A   Clear
2:35 AM 26.6 °F - 15.8 °F 64% 30.22 in 10.0 mi Calm Calm - N/A   Clear
2:55 AM 25.2 °F - 14.9 °F 65% 30.22 in 10.0 mi Calm Calm - N/A   Clear
3:15 AM 25.5 °F - 16.7 °F 69% 30.22 in 10.0 mi Calm Calm - N/A   Clear
3:35 AM 25.3 °F - 17.1 °F 71% 30.23 in 10.0 mi Calm Calm - N/A   Clear
3:55 AM 24.8 °F - 17.1 °F 72% 30.23 in 10.0 mi Calm Calm - N/A   Clear
4:15 AM 25.0 °F - 17.4 °F 73% 30.22 in 10.0 mi Calm Calm - N/A   Clear
4:35 AM 25.2 °F - 16.9 °F 71% 30.23 in 10.0 mi Calm Calm - N/A   Clear
4:55 AM 24.8 °F - 19.0 °F 79% 30.23 in 10.0 mi Calm Calm - N/A   Clear
5:15 AM 23.7 °F - 17.4 °F 77% 30.23 in 10.0 mi Calm Calm - N/A   Clear
5:35 AM 22.8 °F - 17.4 °F 80% 30.24 in 10.0 mi Calm Calm - N/A   Clear
5:55 AM 23.2 °F - 18.3 °F 82% 30.25 in 10.0 mi Calm Calm - N/A   Clear
6:15 AM 23.9 °F - 18.5 °F 80% 30.25 in 10.0 mi Calm Calm - N/A   Clear
6:35 AM 22.8 °F - 18.5 °F 83% 30.26 in 10.0 mi Calm Calm - N/A   Clear
6:55 AM 22.8 °F - 18.0 °F 82% 30.26 in 10.0 mi Calm Calm - N/A   Clear
7:15 AM 23.0 °F - 18.3 °F 82% 30.26 in 10.0 mi Calm Calm - N/A   Clear
7:35 AM 23.0 °F - 17.8 °F 80% 30.27 in 10.0 mi Calm Calm - N/A   Clear
7:55 AM 22.3 °F - 18.3 °F 85% 30.27 in 10.0 mi Calm Calm - N/A   Clear
8:15 AM 22.1 °F - 18.5 °F 86% 30.28 in 10.0 mi Calm Calm - N/A   Clear
8:35 AM 24.8 °F - 20.3 °F 83% 30.28 in 10.0 mi Calm Calm - N/A   Clear
8:55 AM 27.9 °F - 20.3 °F 73% 30.28 in 10.0 mi Calm Calm - N/A   Clear
9:15 AM 32.0 °F - 22.3 °F 67% 30.29 in 10.0 mi Calm Calm - N/A   Clear
9:35 AM 35.8 °F - 22.8 °F 59% 30.29 in 10.0 mi Calm Calm - N/A   Clear
9:55 AM 41.7 °F 37.3 °F 12.2 °F 30% 30.30 in 10.0 mi WSW 6.9 mph - N/A   Clear
10:15 AM 43.7 °F 41.1 °F 10.2 °F 26% 30.29 in 10.0 mi SW 4.6 mph - N/A   Clear
10:35 AM 44.6 °F 39.2 °F 9.0 °F 23% 30.30 in 10.0 mi SW 10.4 mph - N/A   Clear
10:55 AM 46.6 °F - 10.2 °F 23% 30.30 in 10.0 mi SSW 9.2 mph - N/A   Clear
11:15 AM 48.7 °F - 9.5 °F 21% 30.30 in 10.0 mi SW 5.8 mph - N/A   Clear
11:35 AM 49.3 °F - 8.8 °F 19% 30.30 in 10.0 mi WSW 8.1 mph - N/A   Clear
11:55 AM 51.1 °F - 8.8 °F 18% 30.29 in 10.0 mi SSW 5.8 mph - N/A   Clear
12:15 PM 52.5 °F - 7.7 °F 16% 30.29 in 10.0 mi SW 6.9 mph 16.1 mph N/A   Clear
12:35 PM 52.9 °F - 7.5 °F 16% 30.28 in 10.0 mi WSW 9.2 mph - N/A   Clear
12:55 PM 54.5 °F - 7.5 °F 15% 30.27 in 10.0 mi West 8.1 mph - N/A   Clear
1:15 PM 55.4 °F - 8.2 °F 15% 30.26 in 10.0 mi SSW 6.9 mph - N/A   Clear
1:35 PM 57.4 °F - 9.9 °F 15% 30.25 in 10.0 mi SSW 8.1 mph - N/A   Clear
1:55 PM 57.7 °F - 9.7 °F 15% 30.23 in 10.0 mi SSW 10.4 mph 17.3 mph N/A   Clear
2:15 PM 58.1 °F - 10.4 °F 15% 30.21 in 10.0 mi WSW 10.4 mph 17.3 mph N/A   Clear
2:35 PM 59.4 °F - 10.8 °F 15% 30.20 in 10.0 mi SSW 9.2 mph 20.7 mph N/A   Clear
2:55 PM 60.3 °F - 11.3 °F 15% 30.18 in 10.0 mi SW 9.2 mph 16.1 mph N/A   Clear
3:15 PM 60.6 °F - 10.9 °F 14% 30.16 in 10.0 mi SSW 8.1 mph 17.3 mph N/A   Clear
3:35 PM 61.2 °F - 11.7 °F 14% 30.16 in 10.0 mi SSW 12.7 mph 17.3 mph N/A   Clear
3:55 PM 61.2 °F - 12.2 °F 15% 30.15 in 10.0 mi SW 12.7 mph 19.6 mph N/A   Clear
4:15 PM 61.7 °F - 13.5 °F 15% 30.14 in 10.0 mi WSW 16.1 mph 21.9 mph N/A   Clear
4:35 PM 60.6 °F - 13.6 °F 16% 30.13 in 10.0 mi WSW 11.5 mph 17.3 mph N/A   Clear
4:55 PM 61.0 °F - 14.5 °F 16% 30.12 in 10.0 mi WSW 8.1 mph 24.2 mph N/A   Clear
5:15 PM 61.5 °F - 14.5 °F 16% 30.10 in 10.0 mi SSW 11.5 mph 18.4 mph N/A   Clear
5:35 PM 61.3 °F - 14.9 °F 16% 30.09 in 10.0 mi SSW 10.4 mph 17.3 mph N/A   Clear
5:55 PM 61.7 °F - 16.2 °F 17% 30.09 in 10.0 mi SW 11.5 mph 18.4 mph N/A   Clear
6:15 PM 61.0 °F - 15.8 °F 17% 30.08 in 10.0 mi SW 10.4 mph 19.6 mph N/A   Clear
6:35 PM 59.2 °F - 17.1 °F 19% 30.09 in 10.0 mi SW 10.4 mph 17.3 mph N/A   Clear
6:55 PM 60.8 °F - 17.2 °F 18% 30.09 in 10.0 mi SW 11.5 mph - N/A   Clear
7:15 PM 59.2 °F - 16.9 °F 19% 30.09 in 10.0 mi SW 10.4 mph 18.4 mph N/A   Clear
7:35 PM 58.6 °F - 16.5 °F 19% 30.09 in 10.0 mi SW 9.2 mph 18.4 mph N/A   Clear
7:55 PM 57.0 °F - 17.4 °F 21% 30.09 in 10.0 mi SW 6.9 mph - N/A   Clear
8:15 PM 56.1 °F - 18.0 °F 22% 30.09 in 10.0 mi SW 4.6 mph - N/A   Clear
8:35 PM 55.2 °F - 18.5 °F 24% 30.09 in 10.0 mi SW 4.6 mph - N/A   Clear
8:55 PM 54.0 °F - 18.7 °F 25% 30.08 in 10.0 mi Calm Calm - N/A   Clear
9:15 PM 54.0 °F - 19.2 °F 26% 30.08 in 10.0 mi SW 4.6 mph - N/A   Clear
9:35 PM 52.9 °F - 20.3 °F 28% 30.09 in 10.0 mi SW 4.6 mph - N/A   Clear
9:55 PM 53.2 °F - 20.1 °F 27% 30.10 in 10.0 mi SW 4.6 mph - N/A   Clear
10:15 PM 53.6 °F - 20.1 °F 27% 30.09 in 10.0 mi WSW 3.5 mph - N/A   Clear
10:35 PM 54.3 °F - 20.8 °F 27% 30.09 in 10.0 mi WSW 6.9 mph - N/A   Clear
10:55 PM 55.4 °F - 20.5 °F 26% 30.09 in 10.0 mi SW 11.5 mph 19.6 mph N/A   Clear
11:15 PM 55.6 °F - 20.5 °F 26% 30.09 in 10.0 mi SW 11.5 mph 17.3 mph N/A   Mostly Cloudy
11:35 PM 56.5 °F - 21.2 °F 25% 30.07 in 10.0 mi SW 11.5 mph 32.2 mph N/A   Overcast
11:55 PM 55.4 °F - 20.7 °F 26% 30.08 in 10.0 mi SW 6.9 mph 17.3 mph N/A   Scattered Clouds